This is the latest recevied weather packets stored in our database for station/object AE6BH. If no packets are shown the sender has not sent any weather packets the latest 10 day(s).
| Time | Temp. | Humidity | Pressure | Rain* | Wind** | Luminosity | Snow |
|---|---|---|---|---|---|---|---|
| 1778196016 | 21.67° C | 58% | 1014.6 hPa | 0 mm | - | 62 W/m² | - |
| 1778195713 | 21.11° C | 59% | 1014.7 hPa | 0 mm | - | 156 W/m² | - |
| 1778195410 | 21.11° C | 58% | 1014.7 hPa | 0 mm | - | 69 W/m² | - |
| 1778195107 | 21.67° C | 57% | 1014.7 hPa | 0 mm | - | 117 W/m² | - |
| 1778194803 | 21.67° C | 57% | 1014.6 hPa | 0 mm | - | 72 W/m² | - |
| 1778194498 | 21.67° C | 57% | 1014.5 hPa | 0 mm | - | 79 W/m² | - |
| 1778194195 | 21.11° C | 58% | 1014.7 hPa | 0 mm | - | 67 W/m² | - |
| 1778193890 | 21.11° C | 58% | 1014.6 hPa | 0 mm | - | 84 W/m² | - |
| 1778193587 | 21.67° C | 58% | 1014.8 hPa | 0 mm | - | 109 W/m² | - |
| 1778193283 | 21.67° C | 56% | 1014.7 hPa | 0 mm | - | 311 W/m² | - |
| 1778192981 | 22.22° C | 56% | 1014.7 hPa | 0 mm | - | 588 W/m² | - |
| 1778192678 | 22.22° C | 56% | 1014.9 hPa | 0 mm | - | 608 W/m² | - |
| 1778192374 | 22.22° C | 56% | 1014.9 hPa | 0 mm | - | 621 W/m² | - |
| 1778192071 | 22.78° C | 54% | 1015 hPa | 0 mm | - | 655 W/m² | - |
| 1778191767 | 22.78° C | 54% | 1014.9 hPa | 0 mm | - | 631 W/m² | - |
| 1778191465 | 23.89° C | 52% | 1015 hPa | 0 mm | - | 635 W/m² | - |
| 1778191161 | 23.33° C | 53% | 1014.9 hPa | 0 mm | - | 654 W/m² | - |
| 1778190858 | 23.33° C | 53% | 1015 hPa | 0 mm | - | 663 W/m² | - |
| 1778190555 | 23.33° C | 54% | 1015.3 hPa | 0 mm | - | 658 W/m² | - |
| 1778190253 | 23.33° C | 53% | 1015.1 hPa | 0 mm | - | 675 W/m² | - |
| 1778189948 | 23.89° C | 52% | 1015.3 hPa | 0 mm | - | 675 W/m² | - |
| 1778189645 | 22.78° C | 53% | 1015.2 hPa | 0 mm | - | 675 W/m² | - |
| 1778189342 | 23.33° C | 53% | 1015.2 hPa | 0 mm | - | 707 W/m² | - |
| 1778189038 | 23.89° C | 52% | 1015.2 hPa | 0 mm | - | 702 W/m² | - |
| 1778188734 | 24.44° C | 52% | 1015.3 hPa | 0 mm | - | 690 W/m² | - |
* Rain latest hour (hover to see other rain measurements)
** Current wind speed in m/s (hover to see current wind gust speed)